Weather History for KCWI - October, 2013

Change the Weather History Date:

Wednesday, October 30, 2013

  Actual Average Record
Temperature  
Mean Temperature 50 °F -  
Max Temperature 59 °F 59 °F 83 °F (1950)
Min Temperature 42 °F 39 °F 15 °F (1988)
Degree Days  
Heating Degree Days 16    
Moisture  
Dew Point 49 °F    
Average Humidity 88    
Maximum Humidity 94    
Minimum Humidity 71    
Precipitation  
Precipitation 0.96 in - - ()
Sea Level Pressure  
Sea Level Pressure 29.97 in    
Wind  
Wind Speed 9 mph (ESE)    
Max Wind Speed 21 mph    
Max Gust Speed 28 mph    
Visibility 4 miles    
Events      
Averages and records for this station are not official NWS values.
T = Trace of Precipitation, MM = Missing Value Source: NWS Daily Summary

Daily Weather History Graph

Daily Weather History Graph

Search for Another Location

Airport or City:

Trip Planner

Search our weather history database for the weather conditions in past years. The results will help you decide how hot, cold, wet, or windy it might be!

Date:

Astronomy

Oct. 30, 2013 Rise Set
Actual Time 7:31 AM CDT 5:57 PM CDT
Civil Twilight 7:02 AM CDT 6:26 PM CDT
Nautical Twilight 6:29 AM CDT 6:59 PM CDT
Astronomical Twilight 5:57 AM CDT 7:31 PM CDT
Moon 3:16 AM CDT (10/30) 3:46 PM CDT (10/30)
Length of Visible Light 11h 23m
Length of Day
10h 26m
Waning Crescent, 17% of the Moon is Illuminated
Oct 30
Waning Crescent
Nov 3
New
Nov 9
First Quarter
Nov 17
Full
Nov 25
Last Quarter

Hourly Weather History & Observations

Time (CDT) Temp. Windchill Dew Point Humidity Pressure Visibility Wind Dir Wind Speed Gust Speed Precip Events Conditions
12:15 AM 48.2 °F - 39.2 °F 71% 30.11 in 9.0 mi SE 8.1 mph - N/A   Scattered Clouds
12:35 AM 48.2 °F - 41.0 °F 76% 30.11 in 8.0 mi SE 6.9 mph - N/A   Partly Cloudy
12:55 AM 44.6 °F 40.7 °F 37.4 °F 76% 30.10 in 7.0 mi East 6.9 mph - N/A   Clear
1:15 AM 42.8 °F 39.3 °F 37.4 °F 81% 30.10 in 7.0 mi East 5.8 mph - N/A   Mostly Cloudy
1:35 AM 44.6 °F 42.2 °F 39.2 °F 81% 30.10 in 6.0 mi East 4.6 mph - N/A   Overcast
1:55 AM 44.6 °F 41.4 °F 39.2 °F 81% 30.09 in 6.0 mi East 5.8 mph - N/A   Mostly Cloudy
2:15 AM 42.8 °F 39.3 °F 37.4 °F 81% 30.10 in 5.0 mi East 5.8 mph - N/A   Partly Cloudy
2:35 AM 44.6 °F 40.7 °F 39.2 °F 81% 30.10 in 5.0 mi ENE 6.9 mph - N/A   Mostly Cloudy
2:55 AM 46.4 °F 42.4 °F 41.0 °F 81% 30.09 in 5.0 mi ENE 8.1 mph - N/A   Overcast
3:15 AM 46.4 °F 43.5 °F 42.8 °F 87% 30.09 in 5.0 mi East 5.8 mph - N/A   Overcast
3:35 AM 48.2 °F - 44.6 °F 87% 30.09 in 5.0 mi East 4.6 mph - N/A   Overcast
3:55 AM 48.2 °F - 44.6 °F 87% 30.08 in 5.0 mi East 5.8 mph - N/A   Overcast
4:15 AM 48.2 °F - 44.6 °F 87% 30.08 in 5.0 mi East 6.9 mph - N/A   Overcast
4:35 AM 48.2 °F - 44.6 °F 87% 30.07 in 3.0 mi East 8.1 mph - N/A   Overcast
4:55 AM 48.2 °F - 44.6 °F 87% 30.07 in 3.0 mi ESE 8.1 mph - N/A   Overcast
5:15 AM 50.0 °F - 46.4 °F 87% 30.07 in 3.0 mi East 8.1 mph - N/A   Overcast
5:35 AM 50.0 °F - 46.4 °F 87% 30.07 in 3.0 mi East 5.8 mph - N/A   Overcast
5:55 AM 50.0 °F - 46.4 °F 87% 30.07 in 3.0 mi ESE 5.8 mph - N/A   Overcast
6:15 AM 50.0 °F - 46.4 °F 87% 30.07 in 2.5 mi ESE 6.9 mph - N/A   Overcast
6:35 AM 50.0 °F - 46.4 °F 87% 30.06 in 2.5 mi ESE 8.1 mph - N/A   Overcast
6:55 AM 50.0 °F - 46.4 °F 87% 30.05 in 2.5 mi ESE 9.2 mph - N/A   Overcast
7:15 AM 51.8 °F - 46.4 °F 82% 30.06 in 1.8 mi SSE 10.4 mph - N/A   Overcast
7:35 AM 51.8 °F - 48.2 °F 88% 30.05 in 1.8 mi SSE 8.1 mph - N/A   Overcast
7:55 AM 51.8 °F - 48.2 °F 88% 30.04 in 0.8 mi SE 6.9 mph - N/A   Overcast
8:15 AM 51.8 °F - 48.2 °F 88% 30.04 in 0.8 mi SE 13.8 mph - N/A   Overcast
8:35 AM 51.8 °F - 48.2 °F 88% 30.05 in 1.0 mi SE 9.2 mph - N/A   Overcast
8:55 AM 51.8 °F - 48.2 °F 88% 30.06 in 1.2 mi SE 9.2 mph - N/A   Overcast
9:15 AM 53.6 °F - 48.2 °F 82% 30.07 in 1.5 mi SE 9.2 mph - N/A   Overcast
9:35 AM 53.6 °F - 48.2 °F 82% 30.06 in 1.5 mi SE 9.2 mph - N/A   Overcast
9:55 AM 53.6 °F - 50.0 °F 88% 30.06 in 2.0 mi SE 10.4 mph - N/A   Overcast
10:15 AM 53.6 °F - 50.0 °F 88% 30.03 in 2.0 mi SE 12.7 mph - N/A   Overcast
10:35 AM 53.6 °F - 51.8 °F 94% 30.02 in 2.0 mi ESE 11.5 mph - N/A   Overcast
10:55 AM 55.4 °F - 51.8 °F 88% 30.00 in 2.5 mi SE 11.5 mph - N/A   Overcast
11:15 AM 55.4 °F - 51.8 °F 88% 30.00 in 2.0 mi ESE 10.4 mph - N/A   Overcast
11:35 AM 55.4 °F - 51.8 °F 88% 30.00 in 2.0 mi East 9.2 mph - N/A   Overcast
11:55 AM 55.4 °F - 51.8 °F 88% 29.99 in 2.0 mi ESE 10.4 mph - N/A   Overcast
12:15 PM 55.4 °F - 51.8 °F 88% 29.98 in 1.5 mi ESE 12.7 mph - N/A   Overcast
12:35 PM 55.4 °F - 51.8 °F 88% 29.99 in 1.8 mi ESE 9.2 mph - N/A   Overcast
12:55 PM 55.4 °F - 51.8 °F 88% 29.99 in 1.8 mi East 10.4 mph - N/A   Overcast
1:15 PM 55.4 °F - 51.8 °F 88% 29.98 in 1.5 mi East 9.2 mph - N/A   Overcast
1:35 PM 55.4 °F - 51.8 °F 88% 29.99 in 1.2 mi East 6.9 mph - N/A   Overcast
1:55 PM 55.4 °F - 51.8 °F 88% 29.99 in 1.2 mi ESE 8.1 mph - N/A   Overcast
2:15 PM 55.4 °F - 51.8 °F 88% 29.99 in 1.0 mi SE 6.9 mph - N/A   Overcast
2:35 PM 55.4 °F - 51.8 °F 88% 29.98 in 0.5 mi SSE 9.2 mph - N/A   Overcast
2:55 PM 55.4 °F - 51.8 °F 88% 29.97 in 0.5 mi SE 6.9 mph - N/A   Overcast
3:15 PM 55.4 °F - 51.8 °F 88% 29.97 in 0.2 mi SE 5.8 mph - 0.01 in   Overcast
3:35 PM 55.4 °F - 51.8 °F 88% 29.95 in 0.5 mi East 6.9 mph - 0.04 in   Overcast
3:55 PM 55.4 °F - 51.8 °F 88% 29.94 in 0.5 mi East 4.6 mph - 0.07 in   Overcast
4:15 PM 53.6 °F - 51.8 °F 94% 29.93 in 0.8 mi ENE 6.9 mph - 0.08 in   Overcast
4:35 PM 53.6 °F - 51.8 °F 94% 29.93 in 0.8 mi East 5.8 mph - 0.17 in   Overcast
4:55 PM 55.4 °F - 51.8 °F 88% 29.93 in 1.8 mi East 4.6 mph - 0.27 in   Overcast
5:15 PM 55.4 °F - 51.8 °F 88% 29.90 in 1.5 mi East 10.4 mph - 0.09 in   Overcast
5:35 PM 55.4 °F - 51.8 °F 88% 29.90 in 2.5 mi SE 11.5 mph - 0.17 in   Overcast
5:55 PM 55.4 °F - 51.8 °F 88% 29.91 in 3.0 mi SE 11.5 mph - 0.28 in   Overcast
6:15 PM 55.4 °F - 53.6 °F 94% 29.88 in 5.0 mi SE 12.7 mph - 0.09 in   Overcast
6:35 PM 55.4 °F - 53.6 °F 94% 29.89 in 5.0 mi SE 11.5 mph - 0.12 in   Overcast
6:55 PM 55.4 °F - 53.6 °F 94% 29.88 in 5.0 mi SSE 12.7 mph - 0.15 in   Overcast
7:15 PM 55.4 °F - 53.6 °F 94% 29.86 in 5.0 mi SE 13.8 mph - 0.01 in   Overcast
7:35 PM 57.2 °F - 53.6 °F 88% 29.84 in 5.0 mi SE 15.0 mph - 0.01 in   Overcast
7:55 PM 57.2 °F - 53.6 °F 88% 29.82 in 5.0 mi SE 20.7 mph - 0.01 in   Overcast
8:15 PM 57.2 °F - 53.6 °F 88% 29.82 in 6.0 mi SSE 17.3 mph 23.0 mph N/A   Overcast
8:35 PM 57.2 °F - 53.6 °F 88% 29.80 in 5.0 mi SE 18.4 mph 27.6 mph N/A   Overcast
8:55 PM 57.2 °F - 55.4 °F 94% 29.80 in 8.0 mi SE 12.7 mph - N/A   Overcast
9:15 PM 57.2 °F - 53.6 °F 88% 29.80 in 10.0 mi SSE 13.8 mph 20.7 mph N/A   Overcast
9:35 PM 57.2 °F - 55.4 °F 94% 29.81 in 10.0 mi South 12.7 mph 23.0 mph N/A   Overcast
9:55 PM 57.2 °F - 55.4 °F 94% 29.79 in 8.0 mi SSE 19.6 mph 26.5 mph 0.02 in   Overcast
10:15 PM 57.2 °F - 55.4 °F 94% 29.79 in 10.0 mi SSE 17.3 mph - 0.05 in   Mostly Cloudy
10:35 PM 57.2 °F - 55.4 °F 94% 29.78 in 9.0 mi SSE 16.1 mph - 0.08 in   Overcast
10:55 PM 57.2 °F - 55.4 °F 94% 29.77 in 10.0 mi SSE 15.0 mph - 0.12 in   Overcast
11:15 PM 57.2 °F - 55.4 °F 94% 29.78 in 10.0 mi SSE 10.4 mph - 0.01 in   Overcast
11:35 PM 57.2 °F - 55.4 °F 94% 29.78 in 8.0 mi South 8.1 mph - 0.04 in   Overcast
11:55 PM 59.0 °F - 55.4 °F 88% 29.75 in 10.0 mi South 9.2 mph - 0.04 in   Mostly Cloudy